[[{"header":{"parameterUnit":"m.s-1","parameterCategory":1,"la1":30.2991,"la2":30.254,"lo1":-89.0895,"lo2":-89.0444,"dy":0.0017,"dx":0.0017,"nx":28,"ny":28,"refTime":"2023-03-30T15:00:00:Z","depth":0,"parameterNumber":2,"parameterNumberName":"U-component_of_WINDS"},"data":[0,0,0,0,0,0,0,0,0,0,0,0,0,0,0,0,0,0,0,0,0,0,0,0,0,0,0,0,0,0,0,0,0,0,0,0,0,0,0,0,0,0,0,0,0,0,0,0,0,0,0,0,0,0,0,0,0,0,-3.9164,-3.9164,0,-3.917,-3.917,-3.917,-3.9015,-3.9011,-3.9007,-3.9003,-3.9011,-3.9015,-3.9019,0,0,0,0,0,0,0,0,0,0,0,0,0,-3.902,-3.9023,-3.9164,-3.9164,-3.9164,-3.917,-3.917,-3.917,-3.9016,-3.9011,-3.9006,-3.9001,-3.9009,-3.9014,-3.9019,0,0,0,0,0,0,0,0,0,0,0,0,0,-3.906,-3.9025,-3.9164,-3.9088,-3.9081,-3.917,-3.917,-3.917,-3.9017,-3.9011,-3.9004,-3.8999,-3.9008,-3.9014,-3.902,-3.9182,0,0,-3.9039,-3.9041,0,0,0,0,0,0,0,0,-3.9058,-3.9066,-3.9099,-3.9093,-3.9086,-3.9085,-3.9122,-3.9174,-3.9018,-3.9041,-3.9003,-3.8995,-3.9041,-3.9044,-3.9059,-3.9183,-3.9183,-3.9039,-3.9043,-3.9045,-3.9047,0,0,0,0,0,0,0,-3.9055,-3.9064,-3.9166,-3.91,-3.9092,-3.9054,-3.9052,-3.9131,-3.9076,-3.9039,-3.9028,-3.903,-3.9036,-3.9053,-3.9058,-3.9183,-3.9039,-3.9044,-3.9048,-3.9051,-3.944,-3.9446,0,0,0,0,0,0,-3.9063,-3.9063,-3.9166,-3.9166,-3.9056,-3.9061,-3.906,-3.9092,-3.9075,-3.9066,-3.9036,-3.9023,-3.9046,-3.9051,-3.9057,-3.9246,-3.9045,-3.9051,-3.9055,-3.9433,-3.9441,-3.9449,0,0,0,0,0,0,-3.906,-3.9074,-3.9166,-3.9112,-3.9121,-3.907,-3.9108,-3.9095,-3.9112,-3.9072,-3.9062,-3.9063,-3.9041,-3.9049,-3.9152,-3.9244,-3.9054,-3.9059,-3.9425,-3.9436,-3.9445,-3.9625,0,0,0,0,0,0,-3.9057,-3.9074,-3.9135,-3.9114,-3.9124,-3.9261,-3.9113,-3.91,-3.9123,-3.9107,-3.9095,-3.9088,-3.9037,-3.9144,-3.9158,-3.9249,-3.9064,-3.9417,-3.943,-3.9442,-3.961,-3.964,-3.9665,0,0,0,0,0,-3.9052,-3.9186,-3.9139,-3.9152,-3.92,-3.9267,-3.9272,-3.921,-3.9131,-3.9192,-3.9166,-3.9088,-3.9232,-3.9156,-3.9171,-3.9265,-3.9411,-3.9426,-3.9441,-3.9598,-3.9634,-3.9664,0,0,0,0,0,0,-3.9219,-3.9182,-3.9129,-3.926,-3.9268,-3.924,-3.9315,-3.925,-3.9281,-3.9265,-3.9187,-3.9186,-3.9302,-3.9293,-3.9209,-3.942,-3.9307,-3.9326,-3.9422,-3.9455,-3.9482,-3.9482,-3.9069,0,0,0,0,0,-3.9271,-3.9328,-3.9293,-3.9411,-3.9418,-3.9367,-3.9393,-3.9345,-3.935,-3.9353,-3.9334,-3.9343,-3.9389,-3.9422,-3.9463,-3.9608,-3.9603,-3.968,-3.9708,-3.973,-3.9747,-3.9823,-3.9856,-3.9498,-3.9498,-3.9497,0,0,-3.9379,-3.9366,-3.9407,-3.9445,-3.9445,-3.9506,-3.937,-3.9441,-3.9485,-3.9363,-3.9459,-3.9447,-3.9451,-3.9576,-3.963,-3.9572,-3.9845,-3.9749,-3.9767,-3.9772,-3.9842,-3.9876,-3.9906,-3.9508,-3.9506,-3.9505,0,0,-3.9607,-3.9603,-3.9701,-3.9704,-3.9705,-3.967,-3.9694,-3.9676,-3.9663,-3.9758,-3.9667,-3.972,-3.9802,-3.9808,-3.9822,-4.0052,-3.9981,-4.0068,-4.021,-4.0284,-4.0313,-4.0337,-4.0419,-4.0449,-4.0085,-4.0085,-4.0086,0,-3.9742,-3.9829,-3.976,-3.9836,-3.9855,-3.9747,-3.9845,-3.9852,-3.9868,-3.9883,-3.9818,-3.9919,-3.9914,-4.0038,-4.0095,-4.011,-4.0134,-4.0069,-4.0314,-4.0338,-4.036,-4.0437,-4.0468,-4.0096,-4.0095,-4.0094,-4.0093,0,-3.9994,-4.0057,-4.0136,-4.0152,-4.018,-4.0268,-4.0212,-4.0248,-4.0198,-4.0169,-4.0267,-4.0258,-4.0294,-4.032,-4.0272,-4.0438,-4.0402,-4.0327,-4.0212,-4.0406,-4.0477,-4.0505,-4.0111,-4.0107,-4.0104,-4.0101,0,0,-4.0328,-4.0304,-4.0334,-4.034,-4.0334,-4.0381,-4.0463,-4.0498,-4.0531,-4.0545,-4.0612,-4.0684,-4.0614,-4.063,-4.0581,-4.0647,-4.0829,-4.0563,-4.0562,-4.0612,-4.1011,-4.1067,-4.1103,-4.0782,-4.0787,-4.0791,-4.101,0,-4.0549,-4.0687,-4.0626,-4.0771,-4.0828,-4.0725,-4.0797,-4.0801,-4.0777,-4.0821,-4.0794,-4.0846,-4.075,-4.0759,-4.082,-4.0794,-4.0908,-4.0777,-4.0843,-4.0846,-4.0845,-4.1139,-4.1199,-4.1407,-4.1038,-4.1042,-4.1046,0,-4.0825,-4.0849,-4.1,-4.0982,-4.1003,-4.1069,-4.1095,-4.1139,-4.1142,-4.1119,-4.1138,-4.1074,-4.1153,-4.1039,-4.1147,-4.106,-4.1083,-4.1075,-4.1081,-4.1084,-4.0958,-4.1151,-4.1471,-4.1502,-4.1089,-4.1085,-4.1082,0,-4.1052,-4.1123,-4.1222,-4.123,-4.1212,-4.126,-4.1255,-4.1251,-4.1276,-4.13,-4.1315,-4.1348,-4.1366,-4.1394,-4.134,-4.1262,-4.1456,-4.1337,-4.144,-4.1441,-4.1485,-4.1483,-4.1814,-4.1502,-4.1501,-4.1501,-4.15,0,-4.1305,-4.1401,-4.1323,-4.1384,-4.1489,-4.1418,-4.1523,-4.1507,-4.1505,-4.156,-4.1474,-4.1529,-4.1455,-4.1503,-4.1462,-4.1557,-4.1566,-4.155,-4.1538,-4.1558,-4.156,-4.1572,-4.1556,-4.1509,-4.1507,-4.1505,-4.1504,0,-4.1577,-4.1529,-4.1629,-4.1604,-4.16,-4.1678,-4.1656,-4.1711,-4.1681,-4.1752,-4.1765,-4.1718,-4.1769,-4.1718,-4.1767,-4.1739,-4.1867,-4.1835,-4.1867,-4.1857,-4.1962,-4.1953,-4.2311,-4.2355,-4.2016,-4.2019,-4.2022,0,-4.1741,-4.1812,-4.1794,-4.1824,-4.1824,-4.1876,-4.19,-4.1833,-4.1862,-4.187,-4.1924,-4.1968,-4.1999,-4.2086,-4.2056,-4.2092,-4.2059,-4.2183,-4.2064,-4.2082,-4.206,-4.2057,-4.2063,-4.2207,-4.2211,-4.2214,-4.2217,0,-4.2037,-4.2009,-4.2047,-4.2078,-4.2109,-4.2129,-4.2143,-4.2174,-4.2105,-4.2142,-4.2193,-4.2217,-4.2266,-4.231,-4.2337,-4.2332,-4.2264,-4.2254,-4.228,-4.23,-4.2315,-4.2308,-4.1931,-4.2246,-4.2243,-4.2241,-4.224,-4.2238,-4.2259,-4.2317,-4.2313,-4.2358,-4.2361,-4.2376,-4.2427,-4.2402,-4.2443,-4.2477,-4.2435,-4.2498,-4.2497,-4.2526,-4.2529,-4.2577,-4.2525,-4.2563,-4.2572,-4.2582,-4.2597,-4.2308,-4.2582,-4.2581,-4.258,-4.258,-4.2579,0,-4.255,-4.2542,-4.2584,-4.2606,-4.2642,-4.2573,-4.2585,-4.2619,-4.2675,-4.268,-4.2712,-4.277,-4.2813,-4.2786,-4.2822,-4.2866,-4.2835,-4.2877,-4.2873,-4.2873,-4.2642,-4.2616,-4.2901,-4.2901,-4.2901,-4.2901,-4.2901,-4.2901,-4.2706,-4.28,-4.2772,-4.2867,-4.2858,-4.2918,-4.293,-4.2943,-4.2947,-4.3015,-4.305,-4.3032,-4.3024,-4.3059,-4.3095,-4.3086,-4.3103,-4.3157,-4.3137,-4.2921,-4.2889,-4.2859,-4.2834,-4.3161,-4.3161,-4.3363,-4.3365,-4.3367]},{"header":{"parameterUnit":"m.s-1","parameterCategory":1,"la1":30.2991,"la2":30.254,"lo1":-89.0895,"lo2":-89.0444,"dy":0.0017,"dx":0.0017,"nx":28,"ny":28,"refTime":"2023-03-30T15:00:00:Z","depth":0,"parameterNumber":3,"parameterNumberName":"V-component_of_WINDS"},"data":[0,0,0,0,0,0,0,0,0,0,0,0,0,0,0,0,0,0,0,0,0,0,0,0,0,0,0,0,0,0,0,0,0,0,0,0,0,0,0,0,0,0,0,0,0,0,0,0,0,0,0,0,0,0,0,0,0,0,-2.185,-2.185,0,-2.1842,-2.1842,-2.1842,-2.1834,-2.1834,-2.1833,-2.1833,-2.1822,-2.1822,-2.1822,0,0,0,0,0,0,0,0,0,0,0,0,0,-2.1854,-2.1854,-2.185,-2.185,-2.185,-2.1842,-2.1842,-2.1842,-2.1834,-2.1834,-2.1833,-2.1833,-2.1822,-2.1822,-2.1822,0,0,0,0,0,0,0,0,0,0,0,0,0,-2.1849,-2.1854,-2.185,-2.1845,-2.1844,-2.1842,-2.1842,-2.1842,-2.1834,-2.1834,-2.1833,-2.1833,-2.1822,-2.1822,-2.1822,-2.1823,0,0,-2.1821,-2.1821,0,0,0,0,0,0,0,0,-2.185,-2.1849,-2.1846,-2.1845,-2.1845,-2.1839,-2.1839,-2.1835,-2.1834,-2.1838,-2.1833,-2.1833,-2.1828,-2.1827,-2.1826,-2.1823,-2.1822,-2.1821,-2.1821,-2.1821,-2.1821,0,0,0,0,0,0,0,-2.185,-2.185,-2.1847,-2.1846,-2.1845,-2.1841,-2.1841,-2.1838,-2.1834,-2.1837,-2.1837,-2.1836,-2.1827,-2.1826,-2.1825,-2.1822,-2.1821,-2.1821,-2.182,-2.182,-2.1815,-2.1815,0,0,0,0,0,0,-2.1852,-2.185,-2.1847,-2.1847,-2.1847,-2.1841,-2.1841,-2.1841,-2.1834,-2.1832,-2.1836,-2.1836,-2.1827,-2.1826,-2.1825,-2.1824,-2.1821,-2.182,-2.182,-2.1815,-2.1815,-2.1815,0,0,0,0,0,0,-2.1852,-2.1851,-2.1847,-2.1848,-2.1847,-2.1842,-2.1842,-2.1841,-2.1839,-2.1833,-2.1831,-2.1836,-2.1826,-2.1825,-2.1823,-2.1823,-2.182,-2.182,-2.1815,-2.1815,-2.1815,-2.1822,0,0,0,0,0,0,-2.1852,-2.1852,-2.1853,-2.1848,-2.1847,-2.1847,-2.1842,-2.1841,-2.1839,-2.1839,-2.1832,-2.1831,-2.1826,-2.1823,-2.1823,-2.1823,-2.182,-2.1815,-2.1815,-2.1815,-2.1822,-2.1823,-2.1823,0,0,0,0,0,-2.1852,-2.1856,-2.1854,-2.1853,-2.185,-2.1847,-2.1847,-2.1842,-2.1839,-2.184,-2.1835,-2.1831,-2.1823,-2.1823,-2.1822,-2.1822,-2.1815,-2.1815,-2.1815,-2.1822,-2.1823,-2.1823,0,0,0,0,0,0,-2.1861,-2.1855,-2.1853,-2.1855,-2.1852,-2.1846,-2.1847,-2.1843,-2.184,-2.1839,-2.1832,-2.1831,-2.1829,-2.1825,-2.1825,-2.1821,-2.1818,-2.1818,-2.1824,-2.1824,-2.1825,-2.1825,-2.1819,0,0,0,0,0,-2.1864,-2.1864,-2.1858,-2.186,-2.1859,-2.1853,-2.1852,-2.1848,-2.1844,-2.1843,-2.1838,-2.1833,-2.1829,-2.1826,-2.1823,-2.1821,-2.1818,-2.182,-2.1821,-2.1822,-2.1821,-2.1817,-2.1817,-2.1816,-2.1816,-2.1816,0,0,-2.1869,-2.1865,-2.1866,-2.1862,-2.1859,-2.1857,-2.1852,-2.1851,-2.1849,-2.1842,-2.1839,-2.1835,-2.1829,-2.1826,-2.1825,-2.1823,-2.1821,-2.1822,-2.1822,-2.1822,-2.1817,-2.1817,-2.1818,-2.1816,-2.1816,-2.1816,0,0,-2.1876,-2.1875,-2.1876,-2.1872,-2.1867,-2.1863,-2.1863,-2.1857,-2.1854,-2.1851,-2.1845,-2.1841,-2.1836,-2.183,-2.1827,-2.1829,-2.1824,-2.1828,-2.1831,-2.1827,-2.1827,-2.1827,-2.1825,-2.1825,-2.1828,-2.1828,-2.1828,0,-2.1883,-2.1881,-2.1876,-2.1875,-2.1872,-2.1866,-2.1865,-2.1861,-2.1855,-2.1853,-2.1851,-2.1841,-2.1837,-2.1832,-2.1832,-2.183,-2.1828,-2.1829,-2.1827,-2.1827,-2.1827,-2.1826,-2.1825,-2.1828,-2.1828,-2.1828,-2.1828,0,-2.1888,-2.1886,-2.1887,-2.1881,-2.1879,-2.1878,-2.1871,-2.1868,-2.1864,-2.1859,-2.1854,-2.1848,-2.1842,-2.184,-2.1836,-2.1833,-2.1832,-2.1829,-2.1826,-2.1828,-2.1826,-2.1826,-2.1829,-2.1828,-2.1828,-2.1828,0,0,-2.1903,-2.1892,-2.1893,-2.1888,-2.1881,-2.1879,-2.1876,-2.187,-2.1867,-2.1862,-2.1858,-2.1852,-2.1848,-2.1844,-2.1839,-2.1836,-2.1834,-2.1833,-2.1832,-2.1832,-2.1828,-2.1829,-2.1829,-2.1831,-2.1831,-2.1831,-2.1828,0,-2.1908,-2.1904,-2.1898,-2.1895,-2.1892,-2.1884,-2.1881,-2.1875,-2.1869,-2.1865,-2.1858,-2.1853,-2.185,-2.1847,-2.1843,-2.1836,-2.1833,-2.1836,-2.1825,-2.1825,-2.1827,-2.1828,-2.1831,-2.1828,-2.1827,-2.1827,-2.1827,0,-2.1914,-2.1909,-2.1906,-2.1896,-2.1895,-2.1893,-2.1885,-2.1881,-2.1873,-2.1868,-2.1863,-2.1857,-2.1851,-2.1848,-2.1838,-2.184,-2.1835,-2.183,-2.183,-2.1828,-2.1826,-2.1825,-2.1827,-2.1826,-2.1826,-2.1826,-2.1826,0,-2.1923,-2.1916,-2.1912,-2.1909,-2.1898,-2.1896,-2.1891,-2.1883,-2.1878,-2.1871,-2.1868,-2.1859,-2.1855,-2.1847,-2.1838,-2.1838,-2.1828,-2.1826,-2.1823,-2.1823,-2.1821,-2.1822,-2.1821,-2.182,-2.182,-2.182,-2.182,0,-2.1929,-2.1927,-2.1915,-2.1913,-2.1909,-2.1901,-2.1897,-2.1891,-2.1883,-2.1878,-2.187,-2.1865,-2.1854,-2.1847,-2.184,-2.1831,-2.1829,-2.1824,-2.1822,-2.1824,-2.1825,-2.1821,-2.182,-2.182,-2.182,-2.182,-2.182,0,-2.1938,-2.1931,-2.1926,-2.1915,-2.1912,-2.191,-2.19,-2.1896,-2.1889,-2.1882,-2.188,-2.1869,-2.186,-2.185,-2.1838,-2.1832,-2.1823,-2.1821,-2.1826,-2.1825,-2.1822,-2.1822,-2.1818,-2.1817,-2.1818,-2.1818,-2.1818,0,-2.1942,-2.194,-2.1929,-2.1925,-2.192,-2.1914,-2.191,-2.19,-2.1895,-2.1884,-2.1881,-2.1871,-2.1863,-2.1848,-2.1837,-2.1827,-2.1824,-2.1823,-2.1822,-2.1823,-2.1821,-2.1821,-2.182,-2.1823,-2.1823,-2.1823,-2.1823,0,-2.1949,-2.1945,-2.1939,-2.1931,-2.1925,-2.1918,-2.1911,-2.1907,-2.1896,-2.189,-2.1881,-2.1874,-2.1861,-2.185,-2.1838,-2.1831,-2.1824,-2.1823,-2.1822,-2.1824,-2.1826,-2.1823,-2.1826,-2.1824,-2.1824,-2.1824,-2.1824,-2.1824,-2.1955,-2.1952,-2.1942,-2.1935,-2.1928,-2.1921,-2.1916,-2.1908,-2.19,-2.1889,-2.1883,-2.1873,-2.1861,-2.1844,-2.1837,-2.1827,-2.1826,-2.1824,-2.1823,-2.1823,-2.1822,-2.1828,-2.1825,-2.1825,-2.1825,-2.1825,-2.1825,0,-2.196,-2.1953,-2.1946,-2.1936,-2.1929,-2.1924,-2.1914,-2.1909,-2.19,-2.1891,-2.1882,-2.1869,-2.1858,-2.1846,-2.1834,-2.1829,-2.1825,-2.1825,-2.1825,-2.1823,-2.1826,-2.1828,-2.1828,-2.1828,-2.1828,-2.1828,-2.1828,-2.1828,-2.1962,-2.1955,-2.1949,-2.1938,-2.1931,-2.1921,-2.1916,-2.1908,-2.19,-2.1886,-2.1877,-2.187,-2.1858,-2.1844,-2.1833,-2.1829,-2.1825,-2.1826,-2.1821,-2.1824,-2.1823,-2.1823,-2.1825,-2.1825,-2.1825,-2.1819,-2.1819,-2.1819]}]]